Flag for Germany Weather past 2 weeks in Schweinfurt, Bavaria, Germany

Now
66 °F

Scattered clouds.


Feels Like: 66 °F
Forecast: 45 / 67 °F
Wind: 8 mph from West

Location: Wuerzburg

Current Time: May 28, 2015 at 2:22:15 PM

Latest Report: May 28, 2015 at 2:00 PM


Visibility: 28 mi

Pressure: 30.02 "Hg

Humidity: 37%

Dew point: 39 °F

Location of SchweinfurtLocation

Historic Weather in Schweinfurt — Graph

°F

Schweinfurt temperature yesterday

Maximum temperature yesterday: 56 °F (at 5:00 PM)
Minimum temperature yesterday: 45 °F (at 6:00 AM)
Average temperature yesterday: 51 °F

Past Weeks' High & Low Weather Summary

 TemperatureHumidityPressure
High73 °F (May 18, 5:00 PM)95% (May 28, 6:00 AM)30.38 "Hg (May 28, 6:00 AM)
Low39 °F (May 28, 6:00 AM)26% (May 15, 5:00 PM)29.71 "Hg (May 18, 8:00 PM)
Average57 °F59%30.07 "Hg
* Reported May 13 1:00 PM — May 28 1:00 PM, Schweinfurt, Weather by CustomWeather, © 2015

Note: Actual official high and low records may vary slightly from our data, if they occured in-between our weather recording intervals... More about our weather records

Advertising

Schweinfurt weather history for previous 24 hours

 ConditionsComfort  
Time TempWeatherWind HumidityBarometerVisibility
1:00 PM
Thu, May 28
64 °FScattered clouds.7 mph41%30.04 "Hg28 mi
12:00 PM61 °FOvercast.7 mph49%30.07 "Hg22 mi
11:00 AM60 °FOvercast.5 mph52%30.08 "Hg17 mi
10:00 AM54 °FOvercast.3 mph64%30.11 "Hg16 mi
9:00 AM50 °FOvercast.2 mph76%30.12 "Hg12 mi
8:00 AM45 °FOvercast.2 mph84%30.14 "Hg10 mi
7:00 AM40 °FPartly sunny.2 mph92%30.15 "Hg9 mi
6:00 AM39 °FScattered clouds.2 mph95%30.16 "Hg8 mi
5:00 AM40 °FPassing clouds.1 mph94%30.16 "Hg8 mi
4:00 AM40 °FClear.2 mph94%30.17 "Hg8 mi
3:00 AM42 °FClear.2 mph90%30.18 "Hg15 mi
2:00 AM43 °FClear.2 mph86%30.19 "Hg17 mi
1:00 AM45 °FPassing clouds.2 mph80%30.20 "Hg25 mi
12:00 AM47 °FPassing clouds.1 mph69%30.21 "Hg34 mi
11:00 PM
Wed, May 27
49 °FPassing clouds.2 mph64%30.22 "Hg37 mi
10:00 PM52 °FPassing clouds.2 mph54%30.22 "Hg37 mi
9:00 PM53 °FOvercast.2 mph52%30.21 "Hg40 mi
8:00 PM55 °FOvercast.3 mph46%30.22 "Hg37 mi
7:00 PM56 °FOvercast.2 mph46%30.23 "Hg37 mi
6:00 PM56 °FOvercast.3 mph47%30.23 "Hg31 mi
5:00 PM56 °FOvercast.2 mph47%30.24 "Hg31 mi
4:00 PM55 °FOvercast.3 mph49%30.24 "Hg31 mi
3:00 PM55 °FOvercast.3 mph46%30.25 "Hg37 mi
2:00 PM54 °FOvercast.2 mph45%30.26 "Hg31 mi
Weather by CustomWeather, © 2015

See weather overviewHow to use our weather pages